FLI401 BIKF-EKVG

Flight info

Callsign FLI401
Flight time N/A
Altitude 37000
Route OSKUM3C OSKUM DCT MAGNI
Aircraft A320/M-SDE3FGHIRWY/LB1

Departure

Time 2026-04-30 19:34
Airport Keflavik International Airport (BIKF)

Arrival

Time N/A
Airport Vágar Airport (EKVG)
Time Latitude Longitude Altitude Speed Heading
2026-04-30 18:56 63.99422 -22.62475 142 ft 0 kts 90°
2026-04-30 19:14 63.99422 -22.62476 131 ft 1 kts 90°
2026-04-30 19:14 63.99422 -22.62527 134 ft 4 kts 90°
2026-04-30 19:14 63.99422 -22.62590 142 ft 4 kts 90°
2026-04-30 19:14 63.99423 -22.62638 140 ft 4 kts 120°
2026-04-30 19:15 63.99436 -22.62662 140 ft 4 kts 182°
2026-04-30 19:15 63.99425 -22.62681 140 ft 4 kts 203°
2026-04-30 19:15 63.99407 -22.62699 140 ft 0 kts 204°
2026-04-30 19:20 63.99388 -22.62720 140 ft 10 kts 206°
2026-04-30 19:20 63.99328 -22.62759 140 ft 0 kts 181°
2026-04-30 19:20 63.99323 -22.62763 140 ft 0 kts 197°
2026-04-30 19:22 63.99322 -22.62766 140 ft 0 kts 205°
2026-04-30 19:23 63.99301 -22.62767 140 ft 0 kts 153°
2026-04-30 19:24 63.99258 -22.62721 140 ft 4 kts 145°
2026-04-30 19:24 63.99237 -22.62689 140 ft 3 kts 151°
2026-04-30 19:24 63.99218 -22.62678 140 ft 0 kts 171°
2026-04-30 19:25 63.99224 -22.62680 140 ft 10 kts 171°
2026-04-30 19:26 63.99179 -22.62649 140 ft 4 kts 128°
2026-04-30 19:26 63.99172 -22.62429 140 ft 10 kts 90°
2026-04-30 19:26 63.99172 -22.62279 140 ft 9 kts 90°
2026-04-30 19:27 63.99173 -22.62008 140 ft 0 kts 89°
2026-04-30 19:27 63.99173 -22.61908 140 ft 6 kts 89°
2026-04-30 19:28 63.99173 -22.61847 142 ft 1 kts 91°
2026-04-30 19:28 63.99173 -22.61673 145 ft 12 kts 89°
2026-04-30 19:29 63.99173 -22.61133 157 ft 11 kts 90°
2026-04-30 19:29 63.99174 -22.61001 159 ft 6 kts 90°
2026-04-30 19:30 63.99173 -22.60777 165 ft 0 kts 90°
2026-04-30 19:32 63.99173 -22.60746 166 ft 2 kts 90°
2026-04-30 19:32 63.99173 -22.60723 167 ft 8 kts 90°
2026-04-30 19:32 63.99174 -22.60601 171 ft 4 kts 90°
2026-04-30 19:33 63.99157 -22.60547 173 ft 11 kts 148°
2026-04-30 19:33 63.99114 -22.60539 174 ft 6 kts 180°
2026-04-30 19:33 63.98876 -22.60541 172 ft 71 kts 178°
2026-04-30 19:33 63.98163 -22.60539 172 ft 131 kts 180°
2026-04-30 19:34 63.97131 -22.60549 398 ft 158 kts 181°
2026-04-30 19:34 63.96025 -22.60567 1101 ft 159 kts 181°
2026-04-30 19:34 63.94427 -22.58256 2053 ft 200 kts 114°